Time,TemperatureF,DewpointF,PressureIn,WindDirection,WindDirectionDegrees,WindSpeedMPH,WindSpeedGustMPH,Humidity,HourlyPrecipIn,Conditions,Clouds,dailyrainin,SoftwareType,DateUTC
2013-03-02 00:03:00,56.0,15.4,30.19,SSW,207,0.0,0.0,20,0.00,,,0.00,Wunderground v.1.15,2013-03-02 08:03:00,
2013-03-02 00:08:00,56.2,14.4,30.19,SSW,207,0.0,0.0,19,0.00,,,0.00,Wunderground v.1.15,2013-03-02 08:08:00,
2013-03-02 00:14:00,56.3,14.5,30.18,SSW,207,0.0,0.0,19,0.00,,,0.00,Wunderground v.1.15,2013-03-02 08:14:00,
2013-03-02 00:19:00,56.3,14.5,30.18,SSW,207,0.0,0.0,19,0.00,,,0.00,Wunderground v.1.15,2013-03-02 08:19:00,
2013-03-02 00:24:00,56.3,13.3,30.18,SSW,207,0.0,0.0,18,0.00,,,0.00,Wunderground v.1.15,2013-03-02 08:24:00,
2013-03-02 00:29:00,56.4,13.4,30.18,SSW,207,0.0,0.0,18,0.00,,,0.00,Wunderground v.1.15,2013-03-02 08:29:00,
2013-03-02 00:34:00,56.5,13.4,30.18,SSW,207,0.0,0.0,18,0.00,,,0.00,Wunderground v.1.15,2013-03-02 08:34:00,
2013-03-02 00:40:00,56.5,13.4,30.18,SSW,207,0.0,0.0,18,0.00,,,0.00,Wunderground v.1.15,2013-03-02 08:40:00,
2013-03-02 00:45:00,56.5,13.4,30.18,SSW,207,0.0,1.0,18,0.00,,,0.00,Wunderground v.1.15,2013-03-02 08:45:00,
2013-03-02 00:50:00,56.5,13.4,30.18,SSW,207,0.0,0.0,18,0.00,,,0.00,Wunderground v.1.15,2013-03-02 08:50:00,
2013-03-02 00:55:00,56.6,13.5,30.18,SSW,207,0.0,0.0,18,0.00,,,0.00,Wunderground v.1.15,2013-03-02 08:55:00,
2013-03-02 01:01:00,56.5,14.7,30.18,SSW,207,0.0,0.0,19,0.00,,,0.00,Wunderground v.1.15,2013-03-02 09:01:00,
2013-03-02 01:06:00,56.4,14.6,30.18,SSW,207,0.0,0.0,19,0.00,,,0.00,Wunderground v.1.15,2013-03-02 09:06:00,
2013-03-02 01:12:00,56.1,14.3,30.18,SSW,207,0.0,0.0,19,0.00,,,0.00,Wunderground v.1.15,2013-03-02 09:12:00,
2013-03-02 01:18:00,55.8,14.1,30.18,SSW,207,0.0,0.0,19,0.00,,,0.00,Wunderground v.1.15,2013-03-02 09:18:00,
2013-03-02 01:23:00,55.5,13.8,30.18,SSW,207,0.0,0.0,19,0.00,,,0.00,Wunderground v.1.15,2013-03-02 09:23:00,
2013-03-02 01:28:00,55.3,13.7,30.18,SSW,207,0.0,0.0,19,0.00,,,0.00,Wunderground v.1.15,2013-03-02 09:28:00,
2013-03-02 01:34:00,55.4,13.8,30.18,SSW,207,0.0,0.0,19,0.00,,,0.00,Wunderground v.1.15,2013-03-02 09:34:00,
2013-03-02 01:40:00,55.7,14.0,30.17,SSW,207,0.0,0.0,19,0.00,,,0.00,Wunderground v.1.15,2013-03-02 09:40:00,
2013-03-02 01:46:00,55.7,14.0,30.17,SSW,207,0.0,0.0,19,0.00,,,0.00,Wunderground v.1.15,2013-03-02 09:46:00,
2013-03-02 01:51:00,55.7,14.0,30.17,SSW,207,0.0,0.0,19,0.00,,,0.00,Wunderground v.1.15,2013-03-02 09:51:00,
2013-03-02 01:56:00,55.6,13.9,30.17,SSW,207,0.0,0.0,19,0.00,,,0.00,Wunderground v.1.15,2013-03-02 09:56:00,
2013-03-02 02:01:00,55.4,13.8,30.17,SSW,207,0.0,0.0,19,0.00,,,0.00,Wunderground v.1.15,2013-03-02 10:01:00,
2013-03-02 02:06:00,55.2,14.8,30.17,SSW,207,0.0,0.0,20,0.00,,,0.00,Wunderground v.1.15,2013-03-02 10:06:00,
2013-03-02 02:11:00,54.9,14.5,30.17,SSW,207,0.0,0.0,20,0.00,,,0.00,Wunderground v.1.15,2013-03-02 10:11:00,
2013-03-02 02:16:00,54.8,14.4,30.16,SSW,207,0.0,0.0,20,0.00,,,0.00,Wunderground v.1.15,2013-03-02 10:16:00,
2013-03-02 02:21:00,54.6,15.4,30.16,SSW,207,0.0,0.0,21,0.00,,,0.00,Wunderground v.1.15,2013-03-02 10:21:00,
2013-03-02 02:26:00,54.3,15.1,30.16,SSW,207,0.0,0.0,21,0.00,,,0.00,Wunderground v.1.15,2013-03-02 10:26:00,
2013-03-02 02:31:00,54.2,15.1,30.16,SSW,207,0.0,0.0,21,0.00,,,0.00,Wunderground v.1.15,2013-03-02 10:31:00,
2013-03-02 02:36:00,54.0,14.9,30.16,SSW,207,0.0,0.0,21,0.00,,,0.00,Wunderground v.1.15,2013-03-02 10:36:00,
2013-03-02 02:41:00,54.0,14.9,30.15,SSW,207,0.0,0.0,21,0.00,,,0.00,Wunderground v.1.15,2013-03-02 10:41:00,
2013-03-02 02:46:00,53.9,15.9,30.15,SSW,207,0.0,0.0,22,0.00,,,0.00,Wunderground v.1.15,2013-03-02 10:46:00,
2013-03-02 02:51:00,53.9,14.8,30.15,SSW,207,0.0,0.0,21,0.00,,,0.00,Wunderground v.1.15,2013-03-02 10:51:00,
2013-03-02 02:56:00,53.8,14.7,30.15,SSW,207,0.0,0.0,21,0.00,,,0.00,Wunderground v.1.15,2013-03-02 10:56:00,
2013-03-02 03:02:00,53.7,14.6,30.15,SSW,207,0.0,0.0,21,0.00,,,0.00,Wunderground v.1.15,2013-03-02 11:02:00,
2013-03-02 03:07:00,53.6,14.5,30.15,SSW,207,0.0,0.0,21,0.00,,,0.00,Wunderground v.1.15,2013-03-02 11:07:00,
2013-03-02 03:12:00,53.4,14.4,30.15,SSW,207,0.0,0.0,21,0.00,,,0.00,Wunderground v.1.15,2013-03-02 11:12:00,
2013-03-02 03:17:00,53.3,14.3,30.15,SSW,207,0.0,0.0,21,0.00,,,0.00,Wunderground v.1.15,2013-03-02 11:17:00,
2013-03-02 03:22:00,53.3,15.4,30.15,SSW,207,0.0,0.0,22,0.00,,,0.00,Wunderground v.1.15,2013-03-02 11:22:00,
2013-03-02 03:27:00,53.3,14.3,30.15,SSW,207,0.0,0.0,21,0.00,,,0.00,Wunderground v.1.15,2013-03-02 11:27:00,
2013-03-02 03:32:00,53.3,15.4,30.15,SSW,207,0.0,0.0,22,0.00,,,0.00,Wunderground v.1.15,2013-03-02 11:32:00,
2013-03-02 03:37:00,53.3,15.4,30.15,SSW,207,0.0,0.0,22,0.00,,,0.00,Wunderground v.1.15,2013-03-02 11:37:00,
2013-03-02 03:42:00,53.4,15.4,30.14,SSW,207,0.0,0.0,22,0.00,,,0.00,Wunderground v.1.15,2013-03-02 11:42:00,
2013-03-02 03:47:00,53.3,14.3,30.15,SSW,207,0.0,0.0,21,0.00,,,0.00,Wunderground v.1.15,2013-03-02 11:47:00,
2013-03-02 03:52:00,53.3,15.4,30.15,SSW,207,0.0,0.0,22,0.00,,,0.00,Wunderground v.1.15,2013-03-02 11:52:00,
2013-03-02 03:57:00,53.3,15.4,30.15,SSW,207,0.0,0.0,22,0.00,,,0.00,Wunderground v.1.15,2013-03-02 11:57:00,
2013-03-02 04:02:00,53.3,15.4,30.15,SSW,207,0.0,0.0,22,0.00,,,0.00,Wunderground v.1.15,2013-03-02 12:02:00,
2013-03-02 04:07:00,53.5,15.5,30.15,SSW,207,1.0,2.0,22,0.00,,,0.00,Wunderground v.1.15,2013-03-02 12:07:00,
2013-03-02 04:12:00,53.6,14.5,30.15,SSW,207,0.0,1.0,21,0.00,,,0.00,Wunderground v.1.15,2013-03-02 12:12:00,
2013-03-02 04:17:00,53.7,14.6,30.15,SSW,207,0.0,2.0,21,0.00,,,0.00,Wunderground v.1.15,2013-03-02 12:17:00,
2013-03-02 04:22:00,53.9,14.8,30.15,SSW,207,0.0,0.0,21,0.00,,,0.00,Wunderground v.1.15,2013-03-02 12:22:00,
2013-03-02 04:27:00,54.3,14.0,30.15,SSW,207,0.0,0.0,20,0.00,,,0.00,Wunderground v.1.15,2013-03-02 12:27:00,
2013-03-02 04:32:00,54.7,14.4,30.15,SSW,207,0.0,0.0,20,0.00,,,0.00,Wunderground v.1.15,2013-03-02 12:32:00,
2013-03-02 04:37:00,54.9,14.5,30.15,SSW,207,0.0,0.0,20,0.00,,,0.00,Wunderground v.1.15,2013-03-02 12:37:00,
2013-03-02 04:42:00,55.0,14.6,30.15,SSW,207,0.0,1.0,20,0.00,,,0.00,Wunderground v.1.15,2013-03-02 12:42:00,
2013-03-02 04:47:00,55.1,14.7,30.15,SSW,207,0.0,1.0,20,0.00,,,0.00,Wunderground v.1.15,2013-03-02 12:47:00,
2013-03-02 04:52:00,55.1,14.7,30.15,SSW,207,0.0,0.0,20,0.00,,,0.00,Wunderground v.1.15,2013-03-02 12:52:00,
2013-03-02 04:57:00,55.0,14.6,30.15,SSW,207,0.0,0.0,20,0.00,,,0.00,Wunderground v.1.15,2013-03-02 12:57:00,
2013-03-02 05:02:00,54.9,14.5,30.16,SSW,207,0.0,0.0,20,0.00,,,0.00,Wunderground v.1.15,2013-03-02 13:02:00,
2013-03-02 05:07:00,54.7,15.5,30.16,SSW,207,0.0,0.0,21,0.00,,,0.00,Wunderground v.1.15,2013-03-02 13:07:00,
2013-03-02 05:13:00,54.3,15.1,30.16,SSW,207,0.0,0.0,21,0.00,,,0.00,Wunderground v.1.15,2013-03-02 13:13:00,
2013-03-02 05:18:00,54.1,15.0,30.16,SSW,207,0.0,0.0,21,0.00,,,0.00,Wunderground v.1.15,2013-03-02 13:18:00,
2013-03-02 05:23:00,53.7,15.7,30.16,SSW,207,0.0,0.0,22,0.00,,,0.00,Wunderground v.1.15,2013-03-02 13:23:00,
2013-03-02 05:28:00,53.3,15.4,30.16,SSW,207,0.0,0.0,22,0.00,,,0.00,Wunderground v.1.15,2013-03-02 13:28:00,
2013-03-02 05:33:00,52.9,15.0,30.16,SSW,207,0.0,0.0,22,0.00,,,0.00,Wunderground v.1.15,2013-03-02 13:33:00,
2013-03-02 05:38:00,52.7,14.9,30.16,SSW,207,0.0,0.0,22,0.00,,,0.00,Wunderground v.1.15,2013-03-02 13:38:00,
2013-03-02 05:43:00,52.4,15.6,30.16,SSW,207,0.0,0.0,23,0.00,,,0.00,Wunderground v.1.15,2013-03-02 13:43:00,
2013-03-02 05:48:00,52.2,15.5,30.16,SSW,207,0.0,0.0,23,0.00,,,0.00,Wunderground v.1.15,2013-03-02 13:48:00,
2013-03-02 05:53:00,52.0,15.3,30.16,SSW,207,0.0,0.0,23,0.00,,,0.00,Wunderground v.1.15,2013-03-02 13:53:00,
2013-03-02 05:58:00,51.7,16.0,30.16,SSW,207,0.0,0.0,24,0.00,,,0.00,Wunderground v.1.15,2013-03-02 13:58:00,
2013-03-02 06:03:00,51.5,15.8,30.16,SSW,207,0.0,0.0,24,0.00,,,0.00,Wunderground v.1.15,2013-03-02 14:03:00,
2013-03-02 06:08:00,51.3,15.7,30.16,SSW,207,0.0,0.0,24,0.00,,,0.00,Wunderground v.1.15,2013-03-02 14:08:00,
2013-03-02 06:13:00,51.1,15.5,30.16,SSW,207,0.0,0.0,24,0.00,,,0.00,Wunderground v.1.15,2013-03-02 14:13:00,
2013-03-02 06:18:00,51.0,15.4,30.16,SSW,207,0.0,0.0,24,0.00,,,0.00,Wunderground v.1.15,2013-03-02 14:18:00,
2013-03-02 06:23:00,51.0,15.4,30.17,SSW,207,0.0,0.0,24,0.00,,,0.00,Wunderground v.1.15,2013-03-02 14:23:00,
2013-03-02 06:28:00,51.0,15.4,30.17,SSW,207,0.0,0.0,24,0.00,,,0.00,Wunderground v.1.15,2013-03-02 14:28:00,
2013-03-02 06:33:00,51.1,15.5,30.17,SSW,207,0.0,0.0,24,0.00,,,0.00,Wunderground v.1.15,2013-03-02 14:33:00,
2013-03-02 06:38:00,51.1,15.5,30.17,SSW,207,0.0,0.0,24,0.00,,,0.00,Wunderground v.1.15,2013-03-02 14:38:00,
2013-03-02 06:43:00,51.2,16.5,30.17,SSW,207,0.0,0.0,25,0.00,,,0.00,Wunderground v.1.15,2013-03-02 14:43:00,
2013-03-02 06:48:00,51.3,16.6,30.17,SSW,207,0.0,0.0,25,0.00,,,0.00,Wunderground v.1.15,2013-03-02 14:48:00,
2013-03-02 06:53:00,51.4,16.7,30.17,SSW,207,0.0,0.0,25,0.00,,,0.00,Wunderground v.1.15,2013-03-02 14:53:00,
2013-03-02 06:58:00,51.8,18.0,30.17,SSW,207,0.0,0.0,26,0.00,,,0.00,Wunderground v.1.15,2013-03-02 14:58:00,
2013-03-02 07:03:00,52.1,19.1,30.17,SSW,207,0.0,1.0,27,0.00,,,0.00,Wunderground v.1.15,2013-03-02 15:03:00,
2013-03-02 07:08:00,52.4,20.2,30.17,SSW,207,0.0,1.0,28,0.00,,,0.00,Wunderground v.1.15,2013-03-02 15:08:00,
2013-03-02 07:13:00,52.5,20.3,30.17,SSW,207,0.0,0.0,28,0.00,,,0.00,Wunderground v.1.15,2013-03-02 15:13:00,
2013-03-02 07:18:00,52.7,22.9,30.17,SSW,207,0.0,0.0,31,0.00,,,0.00,Wunderground v.1.15,2013-03-02 15:18:00,
2013-03-02 07:23:00,52.9,23.8,30.17,SSW,207,0.0,0.0,32,0.00,,,0.00,Wunderground v.1.15,2013-03-02 15:23:00,
2013-03-02 07:28:00,53.0,23.9,30.17,SSW,207,2.0,2.0,32,0.00,,,0.00,Wunderground v.1.15,2013-03-02 15:28:00,
2013-03-02 07:33:00,53.2,23.3,30.17,SSW,207,0.0,1.0,31,0.00,,,0.00,Wunderground v.1.15,2013-03-02 15:33:00,
2013-03-02 07:38:00,53.5,22.0,30.17,SSW,207,0.0,1.0,29,0.00,,,0.00,Wunderground v.1.15,2013-03-02 15:38:00,
2013-03-02 07:43:00,53.9,22.3,30.17,SSW,207,0.0,1.0,29,0.00,,,0.00,Wunderground v.1.15,2013-03-02 15:43:00,
2013-03-02 07:49:00,54.2,23.4,30.17,SSW,207,1.0,2.0,30,0.00,,,0.00,Wunderground v.1.15,2013-03-02 15:49:00,
2013-03-02 07:54:00,54.8,23.9,30.17,SSW,207,3.0,3.0,30,0.00,,,0.00,Wunderground v.1.15,2013-03-02 15:54:00,
2013-03-02 07:59:00,54.9,23.2,30.17,SSW,207,2.0,4.0,29,0.00,,,0.00,Wunderground v.1.15,2013-03-02 15:59:00,
2013-03-02 08:04:00,55.0,24.1,30.18,SSW,207,1.0,2.0,30,0.00,,,0.00,Wunderground v.1.15,2013-03-02 16:04:00,
2013-03-02 08:09:00,55.5,23.7,30.17,SSW,207,2.0,3.0,29,0.00,,,0.00,Wunderground v.1.15,2013-03-02 16:09:00,
2013-03-02 08:14:00,55.9,24.1,30.18,SSW,207,0.0,3.0,29,0.00,,,0.00,Wunderground v.1.15,2013-03-02 16:14:00,
2013-03-02 08:19:00,56.5,24.6,30.18,SSW,207,0.0,3.0,29,0.00,,,0.00,Wunderground v.1.15,2013-03-02 16:19:00,
2013-03-02 08:24:00,56.9,24.9,30.18,SSW,207,2.0,2.0,29,0.00,,,0.00,Wunderground v.1.15,2013-03-02 16:24:00,
2013-03-02 08:29:00,57.5,23.7,30.17,SSW,207,1.0,3.0,27,0.00,,,0.00,Wunderground v.1.15,2013-03-02 16:29:00,
2013-03-02 08:34:00,58.4,25.4,30.17,SSW,207,0.0,1.0,28,0.00,,,0.00,Wunderground v.1.15,2013-03-02 16:34:00,
2013-03-02 08:39:00,59.5,25.5,30.17,SSW,207,0.0,1.0,27,0.00,,,0.00,Wunderground v.1.15,2013-03-02 16:39:00,
2013-03-02 08:44:00,60.7,23.7,30.17,SSW,207,0.0,0.0,24,0.00,,,0.00,Wunderground v.1.15,2013-03-02 16:44:00,
2013-03-02 08:49:00,61.3,25.1,30.17,SSW,207,0.0,0.0,25,0.00,,,0.00,Wunderground v.1.15,2013-03-02 16:49:00,
2013-03-02 08:54:00,61.1,24.0,30.17,SSW,207,0.0,0.0,24,0.00,,,0.00,Wunderground v.1.15,2013-03-02 16:54:00,
2013-03-02 08:59:00,61.8,25.6,30.17,SSW,207,0.0,0.0,25,0.00,,,0.00,Wunderground v.1.15,2013-03-02 16:59:00,
2013-03-02 09:04:00,62.2,25.9,30.17,SSW,207,0.0,0.0,25,0.00,,,0.00,Wunderground v.1.15,2013-03-02 17:04:00,
2013-03-02 09:09:00,62.7,25.3,30.17,SSW,207,0.0,1.0,24,0.00,,,0.00,Wunderground v.1.15,2013-03-02 17:09:00,
2013-03-02 09:14:00,63.1,25.7,30.17,SSW,207,0.0,1.0,24,0.00,,,0.00,Wunderground v.1.15,2013-03-02 17:14:00,
2013-03-02 09:19:00,63.9,26.4,30.17,SSW,207,0.0,1.0,24,0.00,,,0.00,Wunderground v.1.15,2013-03-02 17:19:00,
2013-03-02 09:24:00,64.5,25.8,30.17,SSW,207,0.0,2.0,23,0.00,,,0.00,Wunderground v.1.15,2013-03-02 17:24:00,
2013-03-02 09:29:00,65.4,26.6,30.17,SSW,207,0.0,2.0,23,0.00,,,0.00,Wunderground v.1.15,2013-03-02 17:29:00,
2013-03-02 09:34:00,65.6,25.7,30.17,SSW,207,2.0,2.0,22,0.00,,,0.00,Wunderground v.1.15,2013-03-02 17:34:00,
2013-03-02 09:39:00,65.9,24.8,30.17,WNW,282,3.0,3.0,21,0.00,,,0.00,Wunderground v.1.15,2013-03-02 17:39:00,
2013-03-02 09:45:00,66.7,23.1,30.17,WNW,282,0.0,3.0,19,0.00,,,0.00,Wunderground v.1.15,2013-03-02 17:45:00,
2013-03-02 09:50:00,67.3,19.5,30.17,WNW,282,2.0,3.0,16,0.00,,,0.00,Wunderground v.1.15,2013-03-02 17:50:00,
2013-03-02 09:55:00,67.8,18.4,30.17,WNW,282,0.0,3.0,15,0.00,,,0.00,Wunderground v.1.15,2013-03-02 17:55:00,
2013-03-02 10:00:00,68.4,18.9,30.16,WNW,282,0.0,2.0,15,0.00,,,0.00,Wunderground v.1.15,2013-03-02 18:00:00,
2013-03-02 10:05:00,68.7,19.1,30.17,WNW,282,0.0,2.0,15,0.00,,,0.00,Wunderground v.1.15,2013-03-02 18:05:00,
2013-03-02 10:10:00,70.0,18.6,30.17,WNW,282,0.0,0.0,14,0.00,,,0.00,Wunderground v.1.15,2013-03-02 18:10:00,
2013-03-02 10:15:00,70.3,17.1,30.17,WNW,282,0.0,3.0,13,0.00,,,0.00,Wunderground v.1.15,2013-03-02 18:15:00,
2013-03-02 10:20:00,70.2,15.1,30.16,WNW,282,0.0,2.0,12,0.00,,,0.00,Wunderground v.1.15,2013-03-02 18:20:00,
2013-03-02 10:25:00,70.7,15.5,30.16,NW,314,0.0,2.0,12,0.00,,,0.00,Wunderground v.1.15,2013-03-02 18:25:00,
2013-03-02 10:30:00,71.9,14.5,30.16,NW,314,1.0,1.0,11,0.00,,,0.00,Wunderground v.1.15,2013-03-02 18:30:00,
2013-03-02 10:35:00,71.8,16.4,30.16,NW,314,2.0,2.0,12,0.00,,,0.00,Wunderground v.1.15,2013-03-02 18:35:00,
2013-03-02 10:40:00,71.7,14.3,30.16,NW,317,1.0,1.0,11,0.00,,,0.00,Wunderground v.1.15,2013-03-02 18:40:00,
2013-03-02 10:45:00,72.2,16.7,30.16,NW,317,2.0,2.0,12,0.00,,,0.00,Wunderground v.1.15,2013-03-02 18:45:00,
2013-03-02 10:50:00,72.9,15.3,30.16,NW,317,0.0,1.0,11,0.00,,,0.00,Wunderground v.1.15,2013-03-02 18:50:00,
2013-03-02 10:55:00,73.4,13.5,30.16,NW,316,2.0,4.0,10,0.00,,,0.00,Wunderground v.1.15,2013-03-02 18:55:00,
2013-03-02 11:01:00,73.3,13.4,30.16,NW,316,1.0,1.0,10,0.00,,,0.00,Wunderground v.1.15,2013-03-02 19:01:00,
2013-03-02 11:06:00,74.3,14.1,30.15,NW,316,0.0,1.0,10,0.00,,,0.00,Wunderground v.1.15,2013-03-02 19:06:00,
2013-03-02 11:11:00,74.8,14.5,30.15,NW,317,1.0,2.0,10,0.00,,,0.00,Wunderground v.1.15,2013-03-02 19:11:00,
2013-03-02 11:16:00,75.2,9.8,30.15,NW,321,1.0,3.0,8,0.00,,,0.00,Wunderground v.1.15,2013-03-02 19:16:00,
2013-03-02 11:21:00,75.3,9.9,30.14,NW,321,0.0,1.0,8,0.00,,,0.00,Wunderground v.1.15,2013-03-02 19:21:00,
2013-03-02 11:26:00,74.6,9.3,30.14,NW,321,0.0,1.0,8,0.00,,,0.00,Wunderground v.1.15,2013-03-02 19:26:00,
2013-03-02 11:31:00,75.8,10.2,30.14,NW,321,0.0,0.0,8,0.00,,,0.00,Wunderground v.1.15,2013-03-02 19:31:00,
2013-03-02 11:36:00,74.6,12.0,30.14,NE,42,3.0,5.0,9,0.00,,,0.00,Wunderground v.1.15,2013-03-02 19:36:00,
2013-03-02 11:41:00,75.4,15.0,30.14,NE,42,0.0,2.0,10,0.00,,,0.00,Wunderground v.1.15,2013-03-02 19:41:00,
2013-03-02 11:47:00,75.0,12.3,30.14,NE,42,0.0,3.0,9,0.00,,,0.00,Wunderground v.1.15,2013-03-02 19:47:00,
2013-03-02 11:52:00,76.1,13.1,30.14,NE,42,0.0,1.0,9,0.00,,,0.00,Wunderground v.1.15,2013-03-02 19:52:00,
2013-03-02 11:57:00,75.6,12.7,30.13,NE,42,1.0,4.0,9,0.00,,,0.00,Wunderground v.1.15,2013-03-02 19:57:00,
2013-03-02 12:02:00,75.1,12.4,30.13,NE,44,1.0,1.0,9,0.00,,,0.00,Wunderground v.1.15,2013-03-02 20:02:00,
2013-03-02 12:07:00,75.5,17.3,30.13,East,84,0.0,7.0,11,0.00,,,0.00,Wunderground v.1.15,2013-03-02 20:07:00,
2013-03-02 12:12:00,75.8,12.9,30.12,ENE,74,0.0,5.0,9,0.00,,,0.00,Wunderground v.1.15,2013-03-02 20:12:00,
2013-03-02 12:17:00,76.3,15.7,30.11,ENE,69,0.0,5.0,10,0.00,,,0.00,Wunderground v.1.15,2013-03-02 20:17:00,
2013-03-02 12:22:00,76.4,15.7,30.11,ENE,68,0.0,2.0,10,0.00,,,0.00,Wunderground v.1.15,2013-03-02 20:22:00,
2013-03-02 12:27:00,77.4,14.1,30.11,ENE,57,0.0,3.0,9,0.00,,,0.00,Wunderground v.1.15,2013-03-02 20:27:00,
2013-03-02 12:32:00,76.2,13.2,30.11,NE,55,0.0,1.0,9,0.00,,,0.00,Wunderground v.1.15,2013-03-02 20:32:00,
2013-03-02 12:37:00,76.2,15.6,30.10,ENE,63,0.0,5.0,10,0.00,,,0.00,Wunderground v.1.15,2013-03-02 20:37:00,
2013-03-02 12:42:00,76.4,15.7,30.10,ENE,63,1.0,8.0,10,0.00,,,0.00,Wunderground v.1.15,2013-03-02 20:42:00,
2013-03-02 12:47:00,76.5,15.8,30.09,ENE,64,2.0,8.0,10,0.00,,,0.00,Wunderground v.1.15,2013-03-02 20:47:00,
2013-03-02 12:53:00,76.2,15.6,30.09,ENE,64,4.0,5.0,10,0.00,,,0.00,Wunderground v.1.15,2013-03-02 20:53:00,
2013-03-02 12:58:00,75.4,15.0,30.09,SE,132,0.0,7.0,10,0.00,,,0.00,Wunderground v.1.15,2013-03-02 20:58:00,
2013-03-02 13:03:00,75.9,15.4,30.09,South,184,0.0,2.0,10,0.00,,,0.00,Wunderground v.1.15,2013-03-02 21:03:00,
2013-03-02 13:08:00,75.4,15.0,30.09,South,180,4.0,5.0,10,0.00,,,0.00,Wunderground v.1.15,2013-03-02 21:08:00,
2013-03-02 13:13:00,76.1,13.1,30.08,SSW,207,4.0,5.0,9,0.00,,,0.00,Wunderground v.1.15,2013-03-02 21:13:00,
2013-03-02 13:18:00,76.8,13.6,30.08,ENE,76,3.0,7.0,9,0.00,,,0.00,Wunderground v.1.15,2013-03-02 21:18:00,
2013-03-02 13:23:00,76.0,13.0,30.08,East,96,1.0,7.0,9,0.00,,,0.00,Wunderground v.1.15,2013-03-02 21:23:00,
2013-03-02 13:28:00,76.2,15.6,30.08,South,190,2.0,7.0,10,0.00,,,0.00,Wunderground v.1.15,2013-03-02 21:28:00,
2013-03-02 13:33:00,75.5,12.7,30.08,SE,128,6.0,8.0,9,0.00,,,0.00,Wunderground v.1.15,2013-03-02 21:33:00,
2013-03-02 13:38:00,75.3,12.5,30.07,ESE,103,5.0,9.0,9,0.00,,,0.00,Wunderground v.1.15,2013-03-02 21:38:00,
2013-03-02 13:43:00,75.2,14.8,30.07,SE,126,0.0,7.0,10,0.00,,,0.00,Wunderground v.1.15,2013-03-02 21:43:00,
2013-03-02 13:48:00,75.6,12.7,30.07,SSE,153,5.0,8.0,9,0.00,,,0.00,Wunderground v.1.15,2013-03-02 21:48:00,
2013-03-02 13:53:00,75.5,12.7,30.07,ESE,109,1.0,9.0,9,0.00,,,0.00,Wunderground v.1.15,2013-03-02 21:53:00,
2013-03-02 13:58:00,75.4,12.6,30.07,SSW,198,4.0,10.0,9,0.00,,,0.00,Wunderground v.1.15,2013-03-02 21:58:00,
2013-03-02 14:03:00,75.1,9.7,30.07,SW,223,0.0,4.0,8,0.00,,,0.00,Wunderground v.1.15,2013-03-02 22:03:00,
2013-03-02 14:08:00,74.6,12.0,30.06,SE,134,2.0,5.0,9,0.00,,,0.00,Wunderground v.1.15,2013-03-02 22:08:00,
2013-03-02 14:13:00,75.3,12.5,30.06,SE,144,1.0,8.0,9,0.00,,,0.00,Wunderground v.1.15,2013-03-02 22:13:00,
2013-03-02 14:19:00,75.5,12.7,30.06,SSW,213,3.0,8.0,9,0.00,,,0.00,Wunderground v.1.15,2013-03-02 22:19:00,
2013-03-02 14:24:00,75.8,15.3,30.06,SSW,199,1.0,4.0,10,0.00,,,0.00,Wunderground v.1.15,2013-03-02 22:24:00,
2013-03-02 14:29:00,75.2,14.8,30.06,ESE,121,3.0,9.0,10,0.00,,,0.00,Wunderground v.1.15,2013-03-02 22:29:00,
2013-03-02 14:34:00,75.1,14.8,30.06,South,178,2.0,4.0,10,0.00,,,0.00,Wunderground v.1.15,2013-03-02 22:34:00,
2013-03-02 14:39:00,76.6,13.5,30.06,West,264,0.0,4.0,9,0.00,,,0.00,Wunderground v.1.15,2013-03-02 22:39:00,
2013-03-02 14:44:00,76.2,13.2,30.06,SE,137,1.0,7.0,9,0.00,,,0.00,Wunderground v.1.15,2013-03-02 22:44:00,
2013-03-02 14:49:00,76.3,13.3,30.06,WSW,248,1.0,7.0,9,0.00,,,0.00,Wunderground v.1.15,2013-03-02 22:49:00,
2013-03-02 14:55:00,75.5,12.7,30.05,SW,215,4.0,7.0,9,0.00,,,0.00,Wunderground v.1.15,2013-03-02 22:55:00,
2013-03-02 15:00:00,74.8,12.1,30.05,SW,215,2.0,2.0,9,0.00,,,0.00,Wunderground v.1.15,2013-03-02 23:00:00,
2013-03-02 15:05:00,74.3,14.1,30.05,SW,214,0.0,2.0,10,0.00,,,0.00,Wunderground v.1.15,2013-03-02 23:05:00,
2013-03-02 15:10:00,74.0,13.9,30.05,SW,224,0.0,1.0,10,0.00,,,0.00,Wunderground v.1.15,2013-03-02 23:10:00,
2013-03-02 15:15:00,73.7,13.7,30.05,West,259,3.0,6.0,10,0.00,,,0.00,Wunderground v.1.15,2013-03-02 23:15:00,
2013-03-02 15:20:00,73.6,13.6,30.05,SSW,203,1.0,2.0,10,0.00,,,0.00,Wunderground v.1.15,2013-03-02 23:20:00,
2013-03-02 15:25:00,73.8,15.9,30.05,SSE,167,1.0,7.0,11,0.00,,,0.00,Wunderground v.1.15,2013-03-02 23:25:00,
2013-03-02 15:30:00,74.6,16.6,30.05,West,259,2.0,3.0,11,0.00,,,0.00,Wunderground v.1.15,2013-03-02 23:30:00,
2013-03-02 15:35:00,75.0,12.3,30.05,West,276,3.0,8.0,9,0.00,,,0.00,Wunderground v.1.15,2013-03-02 23:35:00,
2013-03-02 15:41:00,75.4,15.0,30.05,West,273,1.0,1.0,10,0.00,,,0.00,Wunderground v.1.15,2013-03-02 23:41:00,
2013-03-02 15:46:00,75.4,15.0,30.04,West,260,4.0,7.0,10,0.00,,,0.00,Wunderground v.1.15,2013-03-02 23:46:00,
2013-03-02 15:51:00,75.0,14.7,30.04,WNW,289,4.0,7.0,10,0.00,,,0.00,Wunderground v.1.15,2013-03-02 23:51:00,
2013-03-02 15:56:00,75.1,17.0,30.04,West,269,0.0,7.0,11,0.00,,,0.00,Wunderground v.1.15,2013-03-02 23:56:00,
2013-03-02 16:01:00,74.9,14.6,30.04,WSW,255,6.0,9.0,10,0.00,,,0.00,Wunderground v.1.15,2013-03-03 00:01:00,
2013-03-02 16:06:00,74.9,14.6,30.03,West,265,0.0,9.0,10,0.00,,,0.00,Wunderground v.1.15,2013-03-03 00:06:00,
2013-03-02 16:11:00,74.6,16.6,30.03,WNW,294,2.0,3.0,11,0.00,,,0.00,Wunderground v.1.15,2013-03-03 00:11:00,
2013-03-02 16:16:00,74.2,14.1,30.03,WNW,298,3.0,7.0,10,0.00,,,0.00,Wunderground v.1.15,2013-03-03 00:16:00,
2013-03-02 16:21:00,73.9,13.8,30.03,WNW,294,4.0,4.0,10,0.00,,,0.00,Wunderground v.1.15,2013-03-03 00:21:00,
2013-03-02 16:26:00,73.6,15.8,30.03,WNW,290,0.0,5.0,11,0.00,,,0.00,Wunderground v.1.15,2013-03-03 00:26:00,
2013-03-02 16:31:00,73.6,13.6,30.03,WNW,293,1.0,2.0,10,0.00,,,0.00,Wunderground v.1.15,2013-03-03 00:31:00,
2013-03-02 16:37:00,73.4,15.6,30.03,WNW,291,3.0,4.0,11,0.00,,,0.00,Wunderground v.1.15,2013-03-03 00:37:00,
2013-03-02 16:42:00,73.3,15.6,30.03,WNW,292,0.0,4.0,11,0.00,,,0.00,Wunderground v.1.15,2013-03-03 00:42:00,
2013-03-02 16:47:00,72.7,15.1,30.03,WNW,296,0.0,7.0,11,0.00,,,0.00,Wunderground v.1.15,2013-03-03 00:47:00,
2013-03-02 16:52:00,72.3,16.8,30.03,WNW,295,0.0,2.0,12,0.00,,,0.00,Wunderground v.1.15,2013-03-03 00:52:00,
2013-03-02 16:57:00,71.8,16.4,30.03,WNW,284,3.0,7.0,12,0.00,,,0.00,Wunderground v.1.15,2013-03-03 00:57:00,
2013-03-02 17:02:00,71.3,14.0,30.03,NW,314,1.0,7.0,11,0.00,,,0.00,Wunderground v.1.15,2013-03-03 01:02:00,
2013-03-02 17:07:00,71.0,15.8,30.03,WNW,290,4.0,7.0,12,0.00,,,0.00,Wunderground v.1.15,2013-03-03 01:07:00,
2013-03-02 17:12:00,70.5,15.4,30.03,West,273,4.0,6.0,12,0.00,,,0.00,Wunderground v.1.15,2013-03-03 01:12:00,
2013-03-02 17:17:00,70.1,16.9,30.03,WNW,288,4.0,6.0,13,0.00,,,0.00,Wunderground v.1.15,2013-03-03 01:17:00,
2013-03-02 17:22:00,70.0,16.8,30.03,West,277,6.0,8.0,13,0.00,,,0.00,Wunderground v.1.15,2013-03-03 01:22:00,
2013-03-02 17:27:00,69.8,16.7,30.03,West,277,1.0,8.0,13,0.00,,,0.00,Wunderground v.1.15,2013-03-03 01:27:00,
2013-03-02 17:32:00,69.8,16.7,30.03,West,277,0.0,2.0,13,0.00,,,0.00,Wunderground v.1.15,2013-03-03 01:32:00,
2013-03-02 17:37:00,69.6,16.5,30.03,West,281,0.0,7.0,13,0.00,,,0.00,Wunderground v.1.15,2013-03-03 01:37:00,
2013-03-02 17:42:00,69.4,16.4,30.04,West,279,0.0,3.0,13,0.00,,,0.00,Wunderground v.1.15,2013-03-03 01:42:00,
2013-03-02 17:47:00,69.2,16.2,30.04,WSW,251,0.0,6.0,13,0.00,,,0.00,Wunderground v.1.15,2013-03-03 01:47:00,
2013-03-02 17:52:00,68.9,16.0,30.04,WSW,251,0.0,1.0,13,0.00,,,0.00,Wunderground v.1.15,2013-03-03 01:52:00,
2013-03-02 17:57:00,68.5,13.8,30.04,WSW,250,0.0,5.0,12,0.00,,,0.00,Wunderground v.1.15,2013-03-03 01:57:00,
2013-03-02 18:02:00,68.1,15.3,30.04,WSW,250,0.0,1.0,13,0.00,,,0.00,Wunderground v.1.15,2013-03-03 02:02:00,
2013-03-02 18:07:00,67.7,15.0,30.04,WSW,248,2.0,5.0,13,0.00,,,0.00,Wunderground v.1.15,2013-03-03 02:07:00,
2013-03-02 18:12:00,67.3,14.7,30.04,WSW,248,2.0,4.0,13,0.00,,,0.00,Wunderground v.1.15,2013-03-03 02:12:00,
2013-03-02 18:17:00,67.0,14.5,30.05,WSW,248,0.0,4.0,13,0.00,,,0.00,Wunderground v.1.15,2013-03-03 02:17:00,
2013-03-02 18:22:00,66.6,14.2,30.05,WSW,248,0.0,1.0,13,0.00,,,0.00,Wunderground v.1.15,2013-03-03 02:22:00,
2013-03-02 18:27:00,66.3,15.6,30.04,WSW,248,0.0,1.0,14,0.00,,,0.00,Wunderground v.1.15,2013-03-03 02:27:00,
2013-03-02 18:32:00,66.0,15.4,30.04,WSW,248,0.0,0.0,14,0.00,,,0.00,Wunderground v.1.15,2013-03-03 02:32:00,
2013-03-02 18:37:00,65.6,15.1,30.05,WSW,248,0.0,0.0,14,0.00,,,0.00,Wunderground v.1.15,2013-03-03 02:37:00,
2013-03-02 18:42:00,65.2,14.7,30.05,WSW,248,0.0,0.0,14,0.00,,,0.00,Wunderground v.1.15,2013-03-03 02:42:00,
2013-03-02 18:47:00,64.7,15.9,30.05,WSW,248,1.0,1.0,15,0.00,,,0.00,Wunderground v.1.15,2013-03-03 02:47:00,
2013-03-02 18:52:00,64.3,17.1,30.05,WSW,248,0.0,2.0,16,0.00,,,0.00,Wunderground v.1.15,2013-03-03 02:52:00,
2013-03-02 18:57:00,63.9,18.2,30.05,WSW,248,0.0,2.0,17,0.00,,,0.00,Wunderground v.1.15,2013-03-03 02:57:00,
2013-03-02 19:02:00,63.5,17.8,30.05,WSW,248,0.0,3.0,17,0.00,,,0.00,Wunderground v.1.15,2013-03-03 03:02:00,
2013-03-02 19:08:00,63.2,18.9,30.05,WSW,248,0.0,4.0,18,0.00,,,0.00,Wunderground v.1.15,2013-03-03 03:08:00,
2013-03-02 19:13:00,63.0,18.8,30.05,WSW,248,1.0,3.0,18,0.00,,,0.00,Wunderground v.1.15,2013-03-03 03:13:00,
2013-03-02 19:18:00,62.7,18.5,30.05,WSW,248,1.0,3.0,18,0.00,,,0.00,Wunderground v.1.15,2013-03-03 03:18:00,
2013-03-02 19:23:00,62.5,18.4,30.05,WSW,248,4.0,6.0,18,0.00,,,0.00,Wunderground v.1.15,2013-03-03 03:23:00,
2013-03-02 19:28:00,62.4,19.5,30.06,WSW,248,0.0,6.0,19,0.00,,,0.00,Wunderground v.1.15,2013-03-03 03:28:00,
2013-03-02 19:33:00,62.3,19.5,30.05,WSW,248,0.0,3.0,19,0.00,,,0.00,Wunderground v.1.15,2013-03-03 03:33:00,
2013-03-02 19:38:00,62.1,20.5,30.05,WSW,248,0.0,3.0,20,0.00,,,0.00,Wunderground v.1.15,2013-03-03 03:38:00,
2013-03-02 19:43:00,61.9,20.3,30.05,WSW,248,0.0,4.0,20,0.00,,,0.00,Wunderground v.1.15,2013-03-03 03:43:00,
2013-03-02 19:48:00,61.7,21.3,30.05,WSW,248,4.0,4.0,21,0.00,,,0.00,Wunderground v.1.15,2013-03-03 03:48:00,
2013-03-02 19:53:00,61.4,21.1,30.06,WSW,248,1.0,4.0,21,0.00,,,0.00,Wunderground v.1.15,2013-03-03 03:53:00,
2013-03-02 19:58:00,61.2,20.9,30.06,WSW,248,0.0,4.0,21,0.00,,,0.00,Wunderground v.1.15,2013-03-03 03:58:00,
2013-03-02 20:03:00,60.9,20.7,30.06,WSW,248,1.0,2.0,21,0.00,,,0.00,Wunderground v.1.15,2013-03-03 04:03:00,
2013-03-02 20:08:00,60.8,19.4,30.06,WSW,248,1.0,4.0,20,0.00,,,0.00,Wunderground v.1.15,2013-03-03 04:08:00,
2013-03-02 20:14:00,60.6,19.3,30.06,WSW,248,0.0,2.0,20,0.00,,,0.00,Wunderground v.1.15,2013-03-03 04:14:00,
2013-03-02 20:19:00,60.5,20.3,30.06,WSW,248,0.0,2.0,21,0.00,,,0.00,Wunderground v.1.15,2013-03-03 04:19:00,
2013-03-02 20:24:00,60.4,19.1,30.06,WSW,248,0.0,0.0,20,0.00,,,0.00,Wunderground v.1.15,2013-03-03 04:24:00,
2013-03-02 20:29:00,60.2,18.9,30.06,WSW,248,0.0,0.0,20,0.00,,,0.00,Wunderground v.1.15,2013-03-03 04:29:00,
2013-03-02 20:34:00,60.1,18.8,30.06,WSW,248,0.0,0.0,20,0.00,,,0.00,Wunderground v.1.15,2013-03-03 04:34:00,
2013-03-02 20:39:00,60.1,18.8,30.06,WSW,248,0.0,0.0,20,0.00,,,0.00,Wunderground v.1.15,2013-03-03 04:39:00,
2013-03-02 20:44:00,60.0,18.8,30.06,WSW,248,0.0,0.0,20,0.00,,,0.00,Wunderground v.1.15,2013-03-03 04:44:00,
2013-03-02 20:49:00,59.9,18.7,30.06,WSW,248,0.0,0.0,20,0.00,,,0.00,Wunderground v.1.15,2013-03-03 04:49:00,
2013-03-02 20:54:00,59.9,18.7,30.07,WSW,248,0.0,0.0,20,0.00,,,0.00,Wunderground v.1.15,2013-03-03 04:54:00,
2013-03-02 20:59:00,59.7,18.5,30.07,WSW,248,1.0,1.0,20,0.00,,,0.00,Wunderground v.1.15,2013-03-03 04:59:00,
2013-03-02 21:00:00,59.7,19.6,30.07,WSW,248,0.0,0.0,21,0.00,,,0.00,Wunderground v.1.15,2013-03-03 05:00:00,
2013-03-02 21:01:00,59.7,19.6,30.07,WSW,248,0.0,0.0,21,0.00,,,0.00,Wunderground v.1.15,2013-03-03 05:01:00,
2013-03-02 21:06:00,59.5,19.5,30.07,WSW,248,0.0,4.0,21,0.00,,,0.00,Wunderground v.1.15,2013-03-03 05:06:00,
2013-03-02 21:11:00,59.3,20.4,30.07,WSW,248,0.0,4.0,22,0.00,,,0.00,Wunderground v.1.15,2013-03-03 05:11:00,
2013-03-02 21:16:00,59.2,20.3,30.08,SW,234,1.0,5.0,22,0.00,,,0.00,Wunderground v.1.15,2013-03-03 05:16:00,
2013-03-02 21:21:00,59.1,21.3,30.08,SW,234,2.0,4.0,23,0.00,,,0.00,Wunderground v.1.15,2013-03-03 05:21:00,
2013-03-02 21:26:00,59.1,21.3,30.08,SW,234,0.0,4.0,23,0.00,,,0.00,Wunderground v.1.15,2013-03-03 05:26:00,
2013-03-02 21:31:00,58.9,21.1,30.07,WSW,237,5.0,5.0,23,0.00,,,0.00,Wunderground v.1.15,2013-03-03 05:31:00,
2013-03-02 21:36:00,58.9,21.1,30.07,SW,222,2.0,6.0,23,0.00,,,0.00,Wunderground v.1.15,2013-03-03 05:36:00,
2013-03-02 21:41:00,58.8,21.0,30.07,SW,225,0.0,5.0,23,0.00,,,0.00,Wunderground v.1.15,2013-03-03 05:41:00,
2013-03-02 21:46:00,58.7,21.0,30.07,SW,223,0.0,5.0,23,0.00,,,0.00,Wunderground v.1.15,2013-03-03 05:46:00,
2013-03-02 21:51:00,58.7,21.0,30.07,SW,223,1.0,3.0,23,0.00,,,0.00,Wunderground v.1.15,2013-03-03 05:51:00,
2013-03-02 21:56:00,58.6,20.9,30.07,SW,223,3.0,4.0,23,0.00,,,0.00,Wunderground v.1.15,2013-03-03 05:56:00,
2013-03-02 22:01:00,58.5,20.8,30.07,SW,223,0.0,3.0,23,0.00,,,0.00,Wunderground v.1.15,2013-03-03 06:01:00,
2013-03-02 22:06:00,58.4,20.7,30.07,SW,223,0.0,3.0,23,0.00,,,0.00,Wunderground v.1.15,2013-03-03 06:06:00,
2013-03-02 22:12:00,58.3,20.6,30.07,SW,223,0.0,1.0,23,0.00,,,0.00,Wunderground v.1.15,2013-03-03 06:12:00,
2013-03-02 22:17:00,58.2,20.5,30.07,SW,223,0.0,1.0,23,0.00,,,0.00,Wunderground v.1.15,2013-03-03 06:17:00,
2013-03-02 22:22:00,58.0,20.4,30.06,SW,223,0.0,2.0,23,0.00,,,0.00,Wunderground v.1.15,2013-03-03 06:22:00,
2013-03-02 22:27:00,57.8,20.2,30.06,SW,223,0.0,2.0,23,0.00,,,0.00,Wunderground v.1.15,2013-03-03 06:27:00,
2013-03-02 22:32:00,57.6,20.0,30.06,SW,223,2.0,4.0,23,0.00,,,0.00,Wunderground v.1.15,2013-03-03 06:32:00,
2013-03-02 22:37:00,57.5,20.9,30.07,SW,223,1.0,4.0,24,0.00,,,0.00,Wunderground v.1.15,2013-03-03 06:37:00,
2013-03-02 22:42:00,57.4,20.9,30.06,SW,223,2.0,3.0,24,0.00,,,0.00,Wunderground v.1.15,2013-03-03 06:42:00,
2013-03-02 22:47:00,57.3,20.8,30.06,SW,223,3.0,4.0,24,0.00,,,0.00,Wunderground v.1.15,2013-03-03 06:47:00,
2013-03-02 22:52:00,57.2,19.7,30.07,SW,223,1.0,4.0,23,0.00,,,0.00,Wunderground v.1.15,2013-03-03 06:52:00,
2013-03-02 22:57:00,57.2,19.7,30.06,SW,223,3.0,4.0,23,0.00,,,0.00,Wunderground v.1.15,2013-03-03 06:57:00,
2013-03-02 23:02:00,57.1,19.6,30.07,SW,223,0.0,3.0,23,0.00,,,0.00,Wunderground v.1.15,2013-03-03 07:02:00,
2013-03-02 23:07:00,57.0,19.5,30.06,SW,223,2.0,4.0,23,0.00,,,0.00,Wunderground v.1.15,2013-03-03 07:07:00,
2013-03-02 23:12:00,57.0,19.5,30.06,SW,223,3.0,5.0,23,0.00,,,0.00,Wunderground v.1.15,2013-03-03 07:12:00,
2013-03-02 23:17:00,57.0,18.5,30.06,SW,223,1.0,5.0,22,0.00,,,0.00,Wunderground v.1.15,2013-03-03 07:17:00,
2013-03-02 23:22:00,57.0,18.5,30.06,SW,223,3.0,4.0,22,0.00,,,0.00,Wunderground v.1.15,2013-03-03 07:22:00,
2013-03-02 23:27:00,57.0,18.5,30.06,SW,223,3.0,4.0,22,0.00,,,0.00,Wunderground v.1.15,2013-03-03 07:27:00,
2013-03-02 23:32:00,56.9,18.4,30.06,SW,223,2.0,4.0,22,0.00,,,0.00,Wunderground v.1.15,2013-03-03 07:32:00,
2013-03-02 23:37:00,56.9,18.4,30.06,SW,223,1.0,4.0,22,0.00,,,0.00,Wunderground v.1.15,2013-03-03 07:37:00,
2013-03-02 23:42:00,57.0,18.5,30.06,SW,223,2.0,4.0,22,0.00,,,0.00,Wunderground v.1.15,2013-03-03 07:42:00,
2013-03-02 23:48:00,57.0,18.5,30.05,SW,223,0.0,4.0,22,0.00,,,0.00,Wunderground v.1.15,2013-03-03 07:48:00,
2013-03-02 23:53:00,57.0,19.5,30.06,SW,223,0.0,1.0,23,0.00,,,0.00,Wunderground v.1.15,2013-03-03 07:53:00,
2013-03-02 23:58:00,56.9,19.4,30.06,SW,223,0.0,1.0,23,0.00,,,0.00,Wunderground v.1.15,2013-03-03 07:58:00,